Regional Weather Roundup
Issued by NWS Jackson, KY

Home | Current Version | Previous Version | Graphics & Text | Print | Product List | Glossary On
Versions: 1 2 3 4 5 6 7 8 9 10 11 12 13 14 15 16 17 18 19 20 21 22 23 24 25 26 27 28 29 30 31 32 33 34 35 36 37 38 39 40 41 42 43 44 45 46 47 48 49 50
000
ASUS43 KJKL 270410
RWRJKL

EAST KENTUCKY HOURLY WEATHER ROUNDUP
NATIONAL WEATHER SERVICE JACKSON KY
1200 AM EDT SAT MAY 27 2017

NOTE: "FAIR" INDICATES FEW OR NO CLOUDS BELOW 12,000 FEET WITH
NO SIGNIFICANT WEATHER AND/OR OBSTRUCTIONS TO VISIBILITY.

* THESE REPORTS ARE NOT UNDER NWS QUALITY CONTROL AND MAY NOT
  REPORT WEATHER SUCH AS PRECIPITATION AND FOG.

KYZ079-080-083-085-087-088-110-112-115-119-120-270500
...EASTERN KENTUCKY...

CITY           SKY/WX    TMP DP  RH WIND       PRES   REMARKS
JACKSON        MOCLDY    67  59  75 CALM      29.96S
LONDON         CLOUDY    70  59  68 S7        29.96F
SOMERSET*      CLOUDY    70  61  73 S5        29.96F
MONTICELLO*    CLOUDY    71  63  75 NE8       29.97R
WILLIAMSBURG*  CLOUDY    68  63  83 SE6       29.98S
MIDDLESBORO*   CLOUDY    65  62  90 CALM      30.01S
HARLAN APT*    MOCLDY    63  59  88 CALM      30.01F
PIKE CO APT*     N/A     65  56  75 CALM      29.98S
BIG SANDY APT* PTCLDY    66  57  72 S3        29.97R
MOREHEAD APT*  CLOUDY    68  59  73 S6        29.95R
ASHLAND*       CLOUDY    64  61  88 E3        29.89S
$$

KYZ035-036-041-042-044-050-067-078-099-270500
...CENTRAL KENTUCKY...

CITY           SKY/WX    TMP DP  RH WIND       PRES   REMARKS
MT STERLING*   CLOUDY    70  61  73 SW7       29.93S
FLEMING/MASON* CLOUDY    69  59  71 S7        29.92S
DANVILLE*      CLOUDY    70  63  78 S7        29.93S
LEXINGTON      CLOUDY    74  61  63 S8        29.91S
FRANKFORT      CLOUDY    74  62  66 S6        29.88S
LOUISVILLE     CLOUDY    77  64  64 S9        29.86S
LEBANON*         N/A     73  63  68 S5        29.90F
GLASGOW*       CLOUDY    75  59  56 SW7       29.91S
BOWLING GREEN  CLOUDY    78  61  55 SW8       29.91R
$$

KYZ091>093-OHZ055-061-077-WVZ005-015-034-035-042-270500
...SOUTHERN OHIO/WEST VIRGINIA...

CITY           SKY/WX    TMP DP  RH WIND       PRES   REMARKS
COVINGTON      CLOUDY    71  63  75 S6        29.86F
COLUMBUS       TSTM      66  60  81 SW3       29.91R
DAYTON         CLOUDY    65  63  93 S17G29    29.85F
WILMINGTON     CLOUDY    65  64  97 S5        29.88R
HUNTINGTON     CLOUDY    65  57  75 S6        29.91F
CHARLESTON     CLEAR     62  57  83 CALM      29.93S
PINEVILLE*     CLEAR     55  54  96 MISG      30.05R
BECKLEY        CLEAR     56  51  84 CALM      30.01F
BLUEFIELD      CLEAR     59  51  75 W7        30.03F
LOGAN CO APT*    N/A     61  57  88 CALM      29.97S
$$

VAZ002-007-008-TNZ017-027-036-066-071-270500
...SOUTHWEST VIRGINIA/EAST TENNESSEE...

CITY           SKY/WX    TMP DP  RH WIND       PRES   REMARKS
WISE*          PTCLDY    63  54  72 CALM      30.07S
JONESVILLE*    MOCLDY    63  59  88 CALM      30.04S
ABINGDON*      CLEAR     59  56  91 CALM      30.05S
BRISTOL        PTCLDY    60  57  89 CALM      30.03R
MORRISTOWN*    MOCLDY    66  61  82 CALM      30.01R
SEVIERVILLE*   CLEAR     63  59  88 CALM      30.00R
KNOXVILLE      CLEAR     69  60  73 S5        29.99R
LAFOLLETTE*    CLOUDY    64  63  94 CALM      30.03R
OAK RIDGE      MOCLDY    66  62  87 CALM      30.01R
CROSSVILLE     PTCLDY    67  58  72 CALM      30.03R
NASHVILLE      CLOUDY    74  62  66 S6        29.94R
$$

...KEY TO REMARKS...
VSB - VISIBILITY IN MILES
WCI - WIND CHILL INDEX
HX  - HEAT INDEX

$$



USA.gov is the U.S. government's official web portal to all federal, state and local government web resources and services.